Regional Weather Roundup
Issued by NWS

Home | Current Version | Previous Version | Graphics & Text | Print | Product List | Glossary On
Versions: 1 2 3 4 5 6 7 8 9 10 11 12 13 14 15 16 17 18 19 20 21 22 23 24 25 26 27 28 29 30 31 32 33 34 35 36 37 38 39 40 41 42 43 44 45 46 47 48 49 50
000
ASUS43 KDTX 140610
RWRMI
MICHIGAN HOURLY REGIONAL WEATHER ROUNDUP
NATIONAL WEATHER SERVICE DETROIT/PONTIAC MI
200 AM EDT MON JUL 14 2014

NOTE: "FAIR" INDICATES FEW OR NO CLOUDS BELOW 12,000 FEET WITH NO
SIGNIFICANT WEATHER AND/OR OBSTRUCTION TO VISIBILITY.

MIZ047>049-052>055-059>063-066>070-074>076-081>083-140700-
SOUTHEAST LOWER MICHIGAN

CITY           SKY/WX    TMP DP  RH WIND       PRES   REMARKS
ADRIAN         CLOUDY    66  61  84 SW3       29.89S
6HR MIN TEMP:  64; 6HR MAX TEMP:  80;

ALMA           MOCLDY    65  63  91 CALM      29.88S
ANN ARBOR      CLOUDY    62  59  90 CALM      29.87F
BAD AXE        CLOUDY    61  55  80 S3        29.91S
6HR MIN TEMP:  60; 6HR MAX TEMP:  75;

CARO           MOCLDY    62  60  96 E5        29.88F
DETROIT CITY   CLEAR     71  59  65 CALM      29.87F
6HR MIN TEMP:  69; 6HR MAX TEMP:  84;

DETROIT        MOCLDY    68  59  73 CALM      29.88F
6HR MIN TEMP:  68; 6HR MAX TEMP:  80;

FLINT          PTCLDY    67  61  81 CALM      29.87F
6HR MIN TEMP:  66; 6HR MAX TEMP:  79;

GROSSE ILE     CLEAR     66  63  88 CALM      29.86F
HILLSDALE      CLOUDY    68  64  84 N10       29.91R
HOWELL         MOCLDY    65  62  89 CALM      29.88S
6HR MIN TEMP:  64; 6HR MAX TEMP:  76;


CITY           SKY/WX    TMP DP  RH WIND       PRES   REMARKS
JACKSON        LGT RAIN  66  64  93 S8        29.89S
6HR MIN TEMP:  66; 6HR MAX TEMP:  77; 6HR PCP:  0.06;

LAMBERTVILLE   CLEAR     64  61  88 CALM      29.89S
LANSING        PTCLDY    65  62  90 CALM      29.87F
6HR MIN TEMP:  65; 6HR MAX TEMP:  77;

LAPEER         FAIR      63  60  90 E3        29.89S
MASON          MOCLDY    65  62  92 CALM      29.89S
MONROE         CLEAR     64  63  94 CALM      29.86F
MT. CLEMENS    CLEAR     65  60  83 NE5       29.86F
6HR MIN TEMP:  65; 6HR MAX TEMP:  80;

PONTIAC        MOCLDY    66  60  81 CALM      29.87F
6HR MIN TEMP:  64; 6HR MAX TEMP:  78;

PORT HOPE        N/A     61  52  72 SE6       29.88F
6HR MIN TEMP:  60; 6HR MAX TEMP:  67;

PORT HURON     CLEAR     63  61  94 NE3       29.89F
TRI CITIES     MOCLDY    66  61  84 NE6       29.88F
6HR MIN TEMP:  65; 6HR MAX TEMP:  77; 6HR PCP:  0.05;

TROY           CLEAR     69  59  70 CALM      29.88F
SAGINAW HB     PTCLDY    63  63 100 NE6       29.87S
$$
MIZ043>046-050>051-056>058-064>065-071>073-077>080-140700-
SOUTHWEST LOWER MICHIGAN

CITY           SKY/WX    TMP DP  RH WIND       PRES   REMARKS
BATTLE CREEK   PTCLDY    67  63  87 S6        29.89S
6HR MIN TEMP:  67; 6HR MAX TEMP:  78; 6HR PCP:  0.01;

BENTON HARBOR  CLOUDY    67  65  93 CALM      29.87S
6HR MIN TEMP:  67; 6HR MAX TEMP:  77;

BIG RAPIDS     CLEAR     59  59 100 CALM      29.88F
6HR MIN TEMP:  59; 6HR MAX TEMP:  72;

COLDWATER      CLOUDY    71  64  79 CALM      29.89S
6HR MIN TEMP:  67; 6HR MAX TEMP:  77;

FREMONT        FAIR      62  62 100 CALM      29.88S FOG
HOLLAND        PTCLDY    68  64  87 CALM      29.88S
6HR MIN TEMP:  67; 6HR MAX TEMP:  79;

GRAND RAPIDS   MOCLDY    68  63  84 CALM      29.87F
6HR MIN TEMP:  67; 6HR MAX TEMP:  77;

IONIA          FAIR      63  62  96 CALM      29.86F
KALAMAZOO      LGT RAIN  69  65  86 SW8       29.89R
6HR MIN TEMP:  68; 6HR MAX TEMP:  78; 6HR PCP:  0.01;

LUDINGTON      FOG       55  54  97 CALM      29.88S VSB<1/4
6HR MIN TEMP:  55; 6HR MAX TEMP:  69;

MARSHALL       CLOUDY    65  63  93 SE3       29.88S
MOUNT PLEASANT PTCLDY    62  59  91 CALM      29.87F
6HR MIN TEMP:  62; 6HR MAX TEMP:  74;

MUSKEGON       PTCLDY    66  61  84 NW3       29.88S
6HR MIN TEMP:  63; 6HR MAX TEMP:  72;

SOUTH HAVEN    PTCLDY    64  64 100 CALM      29.88R
$$
MIZ016>042-140700-
NORTHERN LOWER MICHIGAN

CITY           SKY/WX    TMP DP  RH WIND       PRES   REMARKS
ALPENA         CLEAR     49  47  93 SE3       29.88S
6HR MIN TEMP:  49; 6HR MAX TEMP:  70; 6HR PCP: TRACE;

BEAVER ISLAND  CLOUDY    60  54  80 CALM      29.84F
6HR MIN TEMP:  53; 6HR MAX TEMP:  68;

BELLAIRE       CLEAR     51  49  95 CALM      29.85F
6HR MIN TEMP:  50; 6HR MAX TEMP:  71;

CADILLAC       CLEAR     49  49 100 CALM      29.88F
CHARLEVOIX     CLEAR     56  52  85 CALM      29.87F
6HR MIN TEMP:  56; 6HR MAX TEMP:  68;

FRANKFORT      PTCLDY    57  54  90 CALM      29.86F FOG
GAYLORD        CLEAR     51  48  89 CALM      29.87F
6HR MIN TEMP:  51; 6HR MAX TEMP:  67;

GRAYLING       CLEAR     48  48 100 CALM      29.88F
6HR MIN TEMP:  48; 6HR MAX TEMP:  68;

HARBOR SPRINGS CLEAR     53  51  94 CALM      29.84F
HOUGHTON LAKE  CLEAR     49  48  97 E3        29.89S
6HR MIN TEMP:  48; 6HR MAX TEMP:  71;

MANISTEE       MOCLDY    54  52  94 E3        29.88S VSB 1
OSCODA         CLEAR     53  50  89 CALM      29.88S
PELLSTON       PTCLDY    47  46  97 NW3       29.85F
6HR MIN TEMP:  47; 6HR MAX TEMP:  69;

ROGERS CITY    CLEAR     55  52  89 S6        29.87F
TRAVERSE CITY  CLEAR     58  52  80 S3        29.85F
6HR MIN TEMP:  57; 6HR MAX TEMP:  70;

$$
MIZ007>008-015-140700-
EASTERN UPPER MICHIGAN

CITY           SKY/WX    TMP DP  RH WIND       PRES   REMARKS
KINROSS        MOCLDY    54  48  82 S7        29.84F
6HR MIN TEMP:  54; 6HR MAX TEMP:  64;

MACKINAC ISLAN PTCLDY    58  50  73 SE5       29.84F
6HR MIN TEMP:  55; 6HR MAX TEMP:  65;

NEWBERRY       MOCLDY    54  50  87 SW12      29.83F
S. S. MARIE    PTCLDY    51  46  83 CALM      29.84S
6HR MIN TEMP:  51; 6HR MAX TEMP:  64;

MUNISING         N/A     58  50  75 SW3       29.80F
6HR MIN TEMP:  56; 6HR MAX TEMP:  67;

$$
MIZ004>006-011>014-085-140700-
CENTRAL UPPER MICHIGAN

CITY           SKY/WX    TMP DP  RH WIND       PRES   REMARKS
MANISTIQUE     CLOUDY    56  54  92 CALM      29.83S
ESCANABA       MOCLDY    55  52  88 W5        29.82F
6HR MIN TEMP:  55; 6HR MAX TEMP:  70;

MENOMINEE      CLEAR     61  48  63 W3        29.83F
6HR MIN TEMP:  61; 6HR MAX TEMP:  73;

SAWYER-GWINN   CLOUDY    58  52  78 CALM      29.82F
6HR MIN TEMP:  57; 6HR MAX TEMP:  67;

$$
MIZ001>003-009>011-084-140700-
WESTERN UPPER MICHIGAN

CITY           SKY/WX    TMP DP  RH WIND       PRES   REMARKS
IRON MOUNTAIN  MOCLDY    56  50  80 CALM      29.83F
6HR MIN TEMP:  56; 6HR MAX TEMP:  70;

HOUGHTON       CLOUDY    54  48  80 W5        29.79F
6HR MIN TEMP:  53; 6HR MAX TEMP:  64; 6HR PCP: TRACE;

COPPER HARBOR    N/A     59  48  67 NW6       29.78F
6HR MIN TEMP:  59; 6HR MAX TEMP:  68;

IRONWOOD       PTCLDY    55  46  71 CALM      29.83F
$$

ABBREVIATIONS USED IN REMARKS
   TC - TEMPERATURE IN CELSIUS
  WCI - WIND CHILL INDEX
   HX - HEAT INDEX
  VSB - VISIBILITY



USA.gov is the U.S. government's official web portal to all federal, state and local government web resources and services.